Miami, FL

7:17 PM EDT on August 24, 2016 (GMT -0400)
JA Richmond West | | Change Station

Elev 7 ft 25.61 °N, 80.43 °W | Updated 4 seconds ago

Partly Cloudy
Partly Cloudy
82.0 °F
Feels Like 88 °F
N
5.8
Wind Variable Wind from West
Gusts 5.8 mph

Today
High -- | Low -- °F
--% Chance of Precip.
Yesterday
High -- | Low -- °F
Precip. -- in
Pressure 30.03 in
Visibility 10.0 miles
Clouds Few 2600 ft
Few 3600 ft
Heat Index 88 °F
Dew Point 74 °F
Humidity 77%
Rainfall 0.88 in
Snow Depth Not available.
6:59 AM 7:48 PM
Waning Gibbous, 52% visible
METAR KTMB 242253Z 35008KT 10SM VCTS FEW026 FEW036 27/25 A3003 RMK AO2 LTG DSNT N AND W RAB17E35 SLP168 P0000 T02720250
Pressure 30.03 in
Visibility 10.0 miles
Clouds Few 2600 ft
Few 3600 ft
Heat Index 88 °F
Dew Point 74 °F
Humidity 77%
Rainfall 0.88 in
Snow Depth Not available.
6:59 AM 7:48 PM
Waning Gibbous, 52% visible
METAR KTMB 242253Z 35008KT 10SM VCTS FEW026 FEW036 27/25 A3003 RMK AO2 LTG DSNT N AND W RAB17E35 SLP168 P0000 T02720250
A tropical disturbance we've monitored since last week, may have a dangerous future in store for the southeast U.S. and Gulf coasts this weekend into next week. The National Weather Service has issued a flash flood watch for Puerto Rico and the U.S. Virgin Islands. Rainfall totals of 2-4 inches (locally higher) are expected through Wednesday night in those areas.

The National Hurricane Center says this system has a medium to high chance of development into a tropical depression or tropical storm over the next 2 to 5 days. A tight consensus of our guidance suggests the disturbance should continue in a general west or west-northwest trajectory the next several days.

10-Day Weather Forecast

Almanac

Astronomy

Aug. 24, 2016 Rise Set
Actual Time
Civil Twilight
Nautical Twilight
Astronomical Twilight
Moon
Length of Visible Light
Length of Day
Tomorrow will be .
, % of the Moon is Illuminated

Today's Extremes

State Highs State Lows

Community

WunderPhotos

Upload Photos

1,934,731 photos uploaded!

WunderBlog® & News

Nearby

Air Quality

  Air Quality AQ Index Pollutant
Not available.

Snow Depth

Station Depth Elevation

Earthquake Activity

City Distance Mag. Time & Date
Minimum magnitude displayed is 2.5.

Coastal Water Temperatures

Place Temperature

Stations

Nearby Weather Stations

Station Location Temp. Windchill Dew Point Humidity Wind Precip. Elev Updated Type
                   

Watches & Warnings

There are currently no watches in effect.